{"data":{"norad_id":62512,"epoch":"2026-09-21T11:04:02.578080Z","epoch_age_seconds":91494,"freshness":"FRESH","line1":"1 62512U 25004B   26264.46114095  .00146835  00000+0  11266-2 0  9991","line2":"2 62512  43.0001 331.1027 0001112 266.6050  93.4690 15.70863567 97996","mean_motion":15.70863567,"eccentricity":0.0001112,"inclination_deg":43.0001,"raan_deg":331.1027,"arg_perigee_deg":266.605,"mean_anomaly_deg":93.469,"bstar":0.0011266,"rev_number":9799,"period_min":91.669323183176,"perigee_km":355.67881991903,"apogee_km":357.17658710909,"semimajor_km":6734.5647035141,"source":"CELESTRAK","updated_at":"2026-09-22T09:00:49.621419Z"}}